Flag for Germany Weather past 2 weeks in Frankfurt, Hesse, Germany

46 °F


Feels Like: 46 °F
Forecast: 47 / 59 °F
Wind: 2 mph from North

Location: Frankfurt-M-Flughafen Airport

Current Time: Oct 9, 2015 at 7:16:34 AM

Latest Report: Oct 9, 2015 at 6:20 AM

Visibility: N/A

Pressure: 30.12 "Hg

Humidity: 93%

Dew point: 45 °F

Location of FrankfurtLocation

Historic Weather in Frankfurt — Graph


Frankfurt temperature yesterday

Maximum temperature yesterday: 61 °F (at 2:20 PM)
Minimum temperature yesterday: 50 °F (at 7:20 AM)
Average temperature yesterday: 56 °F

Past Weeks' High & Low Weather Summary

High68 °F (Oct 2, 3:20 PM)100% (Sep 24, 5:50 AM)30.60 "Hg (Sep 24, 5:50 AM)
Low43 °F (Oct 2, 6:20 AM)32% (Oct 1, 3:50 PM)29.65 "Hg (Oct 6, 4:20 PM)
Average57 °F71%30.18 "Hg
* Reported Sep 24 5:20 AM — Oct 9 5:20 AM, Frankfurt, Weather by CustomWeather, © 2015

Note: Actual official high and low records may vary slightly from our data, if they occured in-between our weather recording intervals... More about our weather records


Frankfurt weather history for previous 24 hours

Time TempWeatherWind HumidityBarometerVisibility
5:20 AM
Fri, Oct 9
48 °FFog.2 mph94%30.12 "HgN/A
4:50 AM50 °FPassing clouds.1 mph94%30.15 "HgN/A
4:20 AM50 °FPassing clouds.2 mph94%30.15 "HgN/A
3:50 AM50 °FFog.1 mph94%30.15 "HgN/A
3:20 AM50 °FFog.1 mph94%30.15 "HgN/A
2:50 AM50 °FFog.2 mph94%30.15 "HgN/A
2:20 AM50 °FFog.2 mph94%30.15 "HgN/A
1:50 AM52 °FFog.2 mph94%30.15 "HgN/A
1:20 AM52 °FPassing clouds.3 mph94%30.15 "HgN/A
12:50 AM54 °FPassing clouds.3 mph94%30.15 "HgN/A
12:20 AM54 °FPassing clouds.3 mph94%30.15 "HgN/A
11:50 PM
Thu, Oct 8
55 °FPassing clouds.1 mph88%30.15 "HgN/A
11:20 PM57 °FPartly cloudy.2 mph82%30.15 "HgN/A
10:50 PM57 °FPartly cloudy.6 mph82%30.15 "HgN/A
10:20 PM57 °FPartly cloudy.6 mph82%30.15 "HgN/A
9:50 PM57 °FPartly cloudy.6 mph82%30.15 "HgN/A
9:20 PM57 °FPassing clouds.6 mph77%30.15 "HgN/A
8:50 PM57 °FPassing clouds.7 mph77%30.15 "HgN/A
8:20 PM59 °FPassing clouds.7 mph77%30.15 "HgN/A
7:50 PM59 °FPassing clouds.5 mph77%30.15 "HgN/A
7:20 PM57 °FPartly sunny.3 mph82%30.12 "HgN/A
6:50 PM59 °FPartly sunny.6 mph72%30.12 "HgN/A
6:20 PM61 °FPartly sunny.6 mph63%30.12 "HgN/A
5:50 PM61 °FPartly sunny.6 mph63%30.12 "HgN/A
5:20 PM61 °FPartly sunny.7 mph63%30.12 "HgN/A
4:50 PM61 °FPartly sunny.8 mph63%30.12 "HgN/A
4:20 PM61 °FPartly sunny.5 mph68%30.12 "HgN/A
3:50 PM61 °FPartly sunny.5 mph63%30.12 "HgN/A
3:20 PM61 °FPartly sunny.6 mph63%30.12 "HgN/A
2:50 PM61 °FPartly sunny.6 mph68%30.12 "HgN/A
2:20 PM61 °FPartly sunny.7 mph68%30.12 "HgN/A
1:50 PM59 °FPartly sunny.6 mph72%30.12 "HgN/A
1:20 PM59 °FPartly sunny.6 mph72%30.12 "HgN/A
12:50 PM59 °FPartly sunny.7 mph77%30.12 "HgN/A
12:20 PM57 °FPartly sunny.6 mph77%30.12 "HgN/A
11:50 AM55 °FPartly sunny.8 mph82%30.12 "HgN/A
11:20 AM55 °FBroken clouds.7 mph82%30.12 "HgN/A
10:50 AM54 °FPartly sunny.9 mph88%30.12 "HgN/A
10:20 AM54 °FBroken clouds.9 mph88%30.12 "HgN/A
9:50 AM52 °FPartly sunny.9 mph94%30.09 "HgN/A
9:20 AM52 °FPartly sunny.7 mph94%30.09 "HgN/A
8:50 AM52 °FLight rain. Partly sunny.7 mph94%30.09 "HgN/A
8:20 AM50 °FLight rain. Passing clouds.7 mph100%30.09 "HgN/A
7:50 AM50 °FPassing clouds.5 mph100%30.09 "HgN/A
7:20 AM50 °FLight rain. Partly cloudy.6 mph94%30.07 "HgN/A
Weather by CustomWeather, © 2015

See weather overviewHow to use our weather pages